GFSSE_925_spd_162.txt.gz
Wind_Speed
12 13 12 19 20 20 21 21 19 18 17 18 18 16 15 15 15 14 13 13 14 14 14 14 14 14 14 14 14 14 13 13 12 11 11 11 10 8 7 10 5 9 9
18 14 14 19 20 19 18 18 19 16 15 16 16 15 14 13 12 12 13 13 13 13 13 13 12 13 13 13 13 13 12 11 10 9 10 10 8 8 7 7 9 7 8
20 14 13 17 18 17 17 16 16 15 15 14 13 14 13 13 12 12 12 14 13 13 13 12 13 12 12 12 12 12 11 9 8 8 8 6 7 6 6 5 5 6 7
18 17 16 16 17 17 16 16 15 14 12 11 12 13 13 13 13 13 13 11 11 12 13 11 11 11 12 11 11 11 10 9 8 7 5 6 6 3 4 3 5 5 5
18 19 16 16 17 17 16 14 14 13 13 13 12 12 11 10 10 10 11 12 11 11 11 11 10 11 11 10 9 7 6 5 5 5 5 4 4 3 3 2 4 3 3
20 20 18 16 15 17 15 15 14 13 13 12 11 11 11 11 12 13 12 11 12 11 9 9 9 8 8 8 6 6 6 6 3 2 2 2 3 3 2 2 3 3 0
20 19 16 15 15 15 14 14 14 13 13 13 11 11 11 11 11 11 10 9 10 8 8 7 6 5 5 4 3 4 5 5 5 3 3 2 1 3 1 2 3 3 1
19 17 14 12 13 14 12 14 13 12 13 12 11 12 12 11 10 10 9 8 9 8 6 4 3 1 1 1 2 3 4 5 4 3 2 0 3 3 1 2 4 4 3
15 16 14 11 10 11 11 12 11 11 10 11 11 12 12 12 10 8 7 6 6 4 3 2 2 2 3 4 5 6 6 7 5 2 4 3 3 5 3 3 4 5 6
13 14 12 11 10 10 9 10 10 10 10 10 10 10 12 11 10 8 8 5 5 4 3 3 4 5 6 7 7 7 8 8 7 5 6 3 7 7 6 6 5 6 7
15 13 13 12 11 10 10 9 9 9 10 9 8 8 9 5 5 4 3 4 4 3 2 3 3 5 7 7 8 7 7 7 8 7 7 6 8 8 9 9 9 8 8
17 15 14 13 11 10 9 9 8 6 5 5 3 3 3 3 2 2 2 3 4 6 5 6 6 7 5 6 6 7 6 8 10 9 10 9 12 11 11 11 12 13 11
17 16 15 13 12 11 9 10 8 6 5 3 2 1 2 2 2 3 3 3 4 6 7 7 6 6 6 8 7 8 10 12 13 12 11 11 15 15 14 14 13 16 15
18 16 15 14 13 12 9 10 8 7 6 4 3 2 3 3 3 4 5 5 3 4 5 7 8 9 9 9 9 11 12 13 13 14 13 13 16 15 16 17 16 16 17
18 17 16 15 13 12 10 9 8 8 7 5 4 4 5 5 6 5 6 5 6 6 6 6 8 8 8 8 10 12 13 13 14 15 15 15 16 15 16 16 17 18 19
18 18 17 17 15 13 12 10 9 9 8 7 8 7 6 6 7 7 7 6 6 6 6 8 9 10 10 10 11 12 13 13 14 14 16 16 15 17 16 16 16 18 21
18 18 19 18 18 16 14 12 11 10 10 9 8 8 7 7 8 6 6 5 6 6 6 8 10 10 11 12 12 13 13 12 13 14 16 17 17 16 17 18 18 18 21
17 18 18 17 17 17 15 13 12 11 10 9 9 8 8 8 7 6 5 6 5 6 6 8 11 12 14 15 14 14 14 13 13 13 13 13 14 17 15 16 17 21 22
17 17 18 17 16 16 15 14 13 12 11 10 10 9 7 5 5 5 7 6 6 6 7 9 11 13 14 15 16 16 16 16 15 13 12 11 10 11 13 14 15 19 19
18 17 17 18 17 16 15 14 13 13 13 12 11 10 7 6 6 7 7 5 6 7 8 10 11 13 14 13 16 16 16 13 9 8 8 9 10 9 11 11 13 14 13
19 19 19 19 18 17 17 16 16 15 13 13 12 11 10 9 9 8 7 7 8 8 9 9 10 12 12 12 15 16 14 7 4 6 13 9 11 10 10 11 12 12 14
22 21 21 20 19 18 17 16 15 14 13 13 12 12 12 11 10 9 9 9 8 10 8 8 8 10 11 9 11 15 6 7 3 19 8 10 5 13 13 11 14 15 15
25 24 24 23 21 21 19 17 15 14 13 13 14 15 14 11 9 9 8 8 9 9 10 6 7 8 11 9 6 6 5 6 17 3 13 8 15 14 16 17 17 17 18
27 25 25 24 24 23 22 20 19 17 17 14 12 10 9 10 9 8 8 8 7 6 6 6 6 6 7 9 7 5 7 12 8 9 13 20 15 18 18 19 20 19 19
29 28 27 26 26 26 25 24 22 20 18 15 12 10 10 8 8 8 8 7 6 7 5 4 5 6 6 7 8 9 10 11 11 10 15 20 23 19 21 20 22 24 23
31 31 29 28 29 29 28 27 26 22 20 16 14 12 10 9 8 7 6 7 6 5 6 4 6 5 6 7 8 9 11 13 14 15 12 19 23 25 22 24 22 24 25

GFSSE_925_spd_165.txt.gz
Wind_Speed
9 7 13 14 16 17 18 17 16 17 18 16 15 14 15 14 13 13 14 15 14 14 14 14 13 14 15 13 14 12 12 12 11 11 12 12 10 8 8 7 6 9 11
15 11 16 17 17 17 16 17 15 16 17 16 14 13 12 11 11 11 13 14 13 14 13 13 14 12 13 13 12 12 10 10 9 9 9 12 11 7 7 8 14 10 10
15 16 16 16 15 15 15 15 14 15 15 12 13 12 11 11 11 12 13 14 13 13 13 14 13 12 12 12 11 10 9 8 7 5 6 12 11 8 7 6 7 9 9
16 17 16 15 14 14 14 13 13 12 12 12 12 12 12 12 12 12 11 12 14 12 13 12 13 12 12 10 12 10 9 9 7 4 5 5 9 8 6 5 7 7 6
17 18 15 14 14 14 13 12 12 11 11 11 12 13 11 11 10 11 11 11 11 11 12 11 11 11 10 8 8 6 5 4 3 2 7 5 7 7 4 5 5 6 6
21 19 15 14 14 13 13 13 13 13 11 11 11 11 11 13 12 11 11 11 10 9 10 9 9 6 6 7 6 6 5 3 6 9 3 7 6 4 5 6 3 1 0
22 18 15 14 13 14 12 12 13 13 12 10 11 11 11 12 11 10 10 9 8 8 7 6 5 4 3 4 4 5 5 6 10 2 4 2 5 4 4 4 4 2 0
21 19 15 15 13 12 14 12 12 12 11 10 11 11 11 11 10 9 9 8 8 7 6 4 2 2 3 4 5 6 7 9 11 3 1 7 5 3 2 2 3 2 2
19 18 14 13 12 12 12 12 11 11 10 10 11 12 11 11 9 9 8 6 5 4 3 3 3 4 5 6 6 7 8 8 12 10 3 6 5 6 2 1 2 3 4
17 18 17 13 12 12 10 11 10 11 11 11 11 11 11 13 11 10 8 6 5 4 3 3 4 5 6 5 5 7 8 8 11 10 5 3 3 5 4 4 5 5 5
18 16 14 14 11 12 10 9 10 11 11 11 9 5 3 6 5 9 3 3 4 4 3 2 4 6 7 7 4 5 8 9 13 6 6 5 1 6 7 7 7 8 8
21 16 17 13 12 12 13 9 8 7 7 6 4 2 5 3 5 4 1 4 2 5 6 6 6 6 8 9 6 9 7 14 11 11 10 5 5 8 10 11 10 10 12
18 18 15 14 12 11 12 10 8 6 6 5 3 1 3 1 5 4 5 3 4 4 11 8 10 4 7 9 7 11 12 11 13 13 13 14 13 13 13 14 13 13 14
17 17 16 13 12 10 10 10 8 6 5 4 4 2 1 3 3 6 7 6 5 2 2 7 10 11 10 10 13 12 13 12 17 15 14 18 13 13 14 14 14 15 15
18 16 16 15 13 11 9 9 5 5 6 3 2 3 1 3 4 5 4 6 3 6 2 6 8 10 10 11 8 12 14 17 16 17 15 10 15 13 12 14 15 16 16
19 17 16 15 13 12 10 5 7 6 4 5 5 4 3 4 5 7 6 9 4 5 9 8 7 8 9 10 10 11 13 14 13 15 18 17 15 16 18 14 15 16 16
19 18 17 16 15 13 11 9 8 7 7 7 7 5 5 4 3 6 9 4 5 6 7 7 10 9 11 12 11 12 12 11 13 14 15 16 17 17 18 15 14 15 18
17 18 18 17 17 15 13 11 10 9 8 8 7 7 6 5 3 6 8 5 8 6 6 8 10 14 13 15 15 15 14 13 13 13 14 13 13 16 12 12 12 14 17
18 19 18 17 17 17 15 13 12 11 10 9 9 6 8 4 4 4 7 5 5 6 6 9 14 14 15 15 15 16 14 14 12 11 11 11 12 12 12 15 12 12 18
20 19 19 18 17 16 15 13 13 12 11 11 10 9 4 6 6 5 8 3 5 6 6 8 9 12 14 13 16 16 15 9 8 7 9 11 12 9 14 11 14 18 17
21 20 20 20 19 18 17 16 15 14 14 13 13 9 9 9 9 7 9 6 5 7 4 6 10 12 12 12 14 17 16 7 5 9 13 10 11 8 13 15 15 14 14
23 22 22 21 20 20 18 18 16 15 14 14 13 12 12 13 11 10 9 9 7 8 8 5 6 10 11 10 9 16 7 12 12 18 7 12 8 14 14 14 18 17 17
26 25 24 24 23 23 21 18 16 14 13 12 15 14 14 14 14 11 10 9 8 7 10 7 6 7 11 11 4 5 5 6 17 9 13 9 15 16 16 18 17 17 17
28 27 26 26 25 25 24 21 21 18 18 18 16 15 14 13 13 12 11 10 8 8 5 4 5 6 7 11 11 8 6 11 9 10 16 19 17 16 18 18 19 19 16
29 29 28 28 28 27 28 27 22 22 18 16 15 12 12 12 13 14 15 13 13 9 8 4 3 5 8 9 12 12 13 15 14 14 12 19 23 22 22 21 20 22 21
31 30 30 31 31 31 29 31 26 22 22 18 19 16 16 16 18 20 16 14 10 8 6 5 4 4 6 7 8 12 13 13 16 17 12 17 20 25 25 25 22 22 23

GFSSE_925_spd_168.txt.gz
Wind_Speed
3 5 11 13 17 16 17 17 18 17 16 17 17 16 18 16 16 16 15 15 14 13 13 13 14 13 13 13 13 13 13 11 12 12 11 12 12 10 9 6 9 10 10
10 11 14 15 16 14 16 16 17 16 16 15 14 14 14 13 13 14 13 14 14 11 14 14 13 13 12 12 11 11 10 8 8 9 8 9 11 10 9 13 12 10 9
12 15 13 16 15 14 15 13 15 14 14 15 13 13 12 12 14 14 14 14 13 13 13 12 12 12 11 10 9 10 9 7 7 6 7 8 8 11 8 7 9 10 8
17 16 14 15 14 13 13 13 13 13 13 14 14 13 13 13 13 12 13 15 14 12 12 13 11 11 10 11 9 10 7 6 3 4 5 8 8 8 7 8 8 8 7
16 19 16 14 13 13 13 12 12 13 13 13 14 12 12 11 12 13 12 12 12 12 11 12 11 9 7 5 5 5 0 2 1 3 1 17 10 7 7 8 7 7 6
22 18 17 16 14 13 12 12 12 12 11 10 11 11 13 13 12 13 13 12 11 11 10 9 8 7 5 4 3 2 3 4 7 4 6 13 5 6 8 9 10 4 4
21 18 16 15 15 12 12 12 12 13 10 10 12 13 13 11 11 11 11 10 9 9 7 6 4 3 2 1 2 4 4 7 9 11 13 15 5 7 8 8 7 4 4
22 19 16 16 14 12 12 12 12 11 9 10 12 12 11 11 11 10 10 9 8 7 5 3 2 0 2 3 4 5 7 8 10 8 18 14 7 6 7 6 5 5 5
21 19 16 14 13 14 12 11 11 10 10 11 11 11 11 12 11 9 8 7 6 5 3 2 1 2 4 4 4 5 7 7 9 6 9 14 9 6 6 3 4 5 6
23 18 18 14 13 12 10 11 10 11 11 12 11 11 10 11 11 10 8 5 3 2 0 1 2 3 5 5 5 5 7 13 11 12 7 11 6 6 5 2 3 4 6
19 21 17 16 13 13 9 10 11 12 12 10 7 5 5 7 7 5 2 4 3 2 4 7 10 11 9 8 11 9 11 9 14 6 7 1 1 2 1 2 3 6 7
12 16 16 15 15 14 14 10 8 9 7 5 1 1 3 5 8 6 7 8 7 4 6 2 6 2 7 7 8 7 7 11 15 7 6 8 5 5 7 6 7 6 8
21 20 18 18 16 16 15 11 12 13 11 7 2 3 2 8 5 3 3 4 9 4 4 5 2 1 6 9 10 7 11 13 14 10 7 16 12 10 9 8 9 11 11
23 20 18 19 14 9 12 11 9 8 8 8 9 4 1 5 6 3 5 11 10 6 1 6 10 12 8 11 7 9 10 10 14 17 13 16 15 12 10 10 11 11 13
29 23 20 18 17 9 5 9 5 5 6 5 2 4 2 3 2 5 8 9 5 8 9 9 11 6 10 13 6 8 12 15 14 13 14 5 10 12 13 14 14 12 13
17 20 19 16 16 11 9 3 5 5 2 6 3 7 2 2 4 4 10 9 3 8 6 3 8 8 11 10 12 10 10 10 12 14 12 12 13 16 17 16 15 12 13
22 17 21 18 17 16 12 8 6 8 7 5 9 8 6 4 5 4 10 7 9 7 7 8 7 11 15 12 12 13 13 14 13 12 13 12 16 15 16 16 16 12 11
25 22 22 19 20 18 16 13 12 10 8 10 10 12 12 6 5 6 11 1 5 4 4 8 16 14 16 14 17 13 14 12 10 14 12 11 13 16 15 15 14 13 14
25 25 21 22 23 21 17 14 12 11 10 14 12 7 9 7 6 7 9 3 5 5 5 10 12 12 14 15 13 17 16 14 8 9 7 9 11 12 10 13 10 13 15
22 24 20 18 19 22 19 17 14 14 14 13 14 12 11 10 8 8 9 4 5 8 5 11 7 9 13 13 12 18 21 18 6 7 11 10 11 11 9 12 14 14 15
23 23 25 21 21 19 19 19 18 17 18 18 18 15 13 9 8 6 7 10 5 7 3 5 4 7 10 9 13 18 21 17 3 18 15 9 12 6 16 15 14 13 20
24 25 24 24 22 24 20 21 19 18 18 21 18 16 18 14 12 12 11 13 7 8 6 5 3 4 8 10 4 10 4 6 22 25 15 13 8 16 19 16 18 20 17
28 29 28 28 27 26 24 22 21 15 20 12 15 9 15 15 16 14 14 13 13 9 8 3 3 3 5 8 6 5 3 2 11 10 21 19 22 18 17 18 16 17 15
27 29 29 29 28 28 28 21 23 20 16 17 15 14 19 20 20 18 18 17 15 12 9 4 6 6 3 8 9 7 8 11 3 7 12 15 17 23 19 24 22 18 18
29 30 31 31 31 29 29 30 26 24 21 22 19 21 21 18 20 18 17 18 17 13 11 12 8 6 4 6 6 9 11 16 12 7 5 15 26 20 20 18 27 25 24
31 31 33 34 34 33 31 35 29 26 28 19 21 18 16 17 16 19 18 17 14 12 12 11 8 6 5 6 7 8 11 12 10 9 4 11 12 24 27 27 23 20 25

GFSSE_925_spd_171.txt.gz
Wind_Speed
7 12 15 19 19 18 19 18 17 17 17 18 21 18 18 18 18 17 16 16 13 16 13 14 13 12 12 10 13 13 13 14 14 14 12 12 13 14 12 14 10 11 11
15 15 17 17 17 18 18 18 18 17 16 17 17 16 14 16 15 15 14 15 13 13 14 13 12 11 11 10 11 12 10 12 12 12 11 9 10 10 12 12 12 10 10
19 19 17 17 16 18 19 18 16 16 16 14 13 13 14 15 15 16 14 15 14 13 13 12 11 9 10 8 8 8 7 9 8 8 9 9 8 9 10 8 9 9 8
21 18 18 16 16 16 16 15 15 15 15 14 14 14 14 15 13 14 15 13 12 12 12 11 12 9 9 7 7 6 4 5 3 7 6 9 8 9 8 9 9 8 7
19 18 18 16 15 16 14 13 14 14 14 15 14 14 13 12 13 13 13 12 11 11 11 9 9 9 5 3 3 1 1 1 1 2 6 12 11 10 10 9 9 8 8
22 19 17 17 16 15 13 13 14 13 13 12 12 13 15 14 14 13 13 12 11 10 9 7 7 5 3 2 2 4 3 2 4 4 4 15 8 8 10 9 9 6 9
20 21 18 17 16 15 15 13 12 12 11 12 15 15 13 13 12 12 11 10 9 8 7 5 4 2 0 3 4 4 5 7 8 8 4 15 7 8 10 9 9 6 6
21 20 18 16 15 14 14 14 13 10 11 13 14 13 13 13 13 12 11 10 9 7 5 4 3 2 3 5 7 7 8 10 12 12 5 19 10 9 10 10 9 7 6
22 20 18 16 15 14 14 13 12 10 12 13 12 11 11 11 11 11 10 9 7 5 3 1 2 5 6 8 8 8 10 12 11 11 3 22 12 8 9 10 9 8 8
22 19 17 15 15 14 13 12 11 11 12 12 11 10 11 10 9 9 7 5 4 4 4 3 2 1 3 4 7 11 11 8 9 6 7 8 7 10 8 9 8 8 8
24 22 17 17 16 12 11 12 13 13 12 12 7 6 5 7 6 4 3 1 1 1 1 1 5 3 4 5 7 11 13 8 3 10 7 19 16 8 10 8 7 6 8
28 23 19 19 18 13 13 13 15 16 11 10 4 8 6 4 7 6 2 2 3 2 1 3 3 9 7 7 7 11 10 10 9 6 2 9 12 10 8 4 8 6 8
28 25 23 21 19 16 13 13 13 13 10 8 6 5 5 4 6 1 1 2 4 3 1 5 4 7 7 8 6 6 6 8 9 5 8 8 14 11 8 7 7 7 11
24 24 26 20 21 20 14 11 12 14 13 11 9 9 7 4 7 2 7 8 9 3 0 1 7 6 7 7 11 11 5 8 10 13 10 7 6 12 10 11 10 9 10
27 25 27 24 20 12 14 12 6 18 19 14 8 8 4 2 2 4 6 11 5 7 5 2 3 5 8 12 7 6 7 11 7 11 8 5 8 9 13 15 12 11 9
29 27 30 26 22 18 12 9 7 10 12 10 6 8 7 5 3 6 7 9 11 8 4 4 5 10 11 11 11 14 9 10 9 10 12 12 10 14 17 14 12 13 11
29 30 30 26 22 23 16 11 11 10 7 5 6 9 8 6 4 4 4 3 0 5 4 9 6 8 10 10 11 11 13 11 11 12 10 10 11 8 6 9 13 14 12
32 33 29 25 21 22 20 13 12 12 8 9 12 15 14 7 5 3 5 6 3 2 8 8 7 8 9 10 11 12 12 13 12 10 7 8 8 8 8 9 7 8 11
34 31 32 26 23 20 21 18 14 14 11 13 14 11 17 10 4 4 2 2 1 1 4 3 7 7 9 12 10 16 17 12 12 9 8 13 5 8 2 7 10 9 8
36 32 32 29 28 25 21 19 17 14 15 16 16 11 18 9 9 8 8 5 6 4 2 5 5 4 7 8 12 16 16 11 6 9 8 5 10 4 7 13 9 8 5
38 37 33 32 29 29 27 25 21 20 17 16 15 15 20 13 12 12 11 9 9 5 6 6 5 6 5 8 9 11 15 8 7 15 13 12 7 12 15 13 11 14 19
36 39 34 31 29 33 30 28 23 23 22 21 15 15 15 20 20 16 12 13 11 8 7 6 6 7 5 6 4 4 2 5 9 19 17 16 16 16 18 16 18 18 18
34 38 38 35 31 30 30 25 20 19 22 22 27 25 24 23 18 16 16 14 14 11 10 5 6 7 6 9 6 4 2 3 8 6 18 14 16 18 16 22 20 17 20
35 38 37 37 35 32 30 27 28 27 24 25 23 16 17 21 20 18 20 20 18 15 12 8 10 10 7 7 9 5 7 6 1 4 14 13 19 18 20 19 22 25 20
35 38 39 39 37 36 34 32 29 31 29 25 18 22 17 20 22 22 20 19 18 17 17 12 11 10 8 7 6 9 8 12 8 2 2 15 26 22 25 26 21 24 23
34 36 37 40 40 39 37 36 37 31 30 28 27 22 23 25 26 27 23 23 19 21 21 18 15 13 9 8 8 6 6 3 8 4 1 3 7 21 26 28 25 24 23